GSAT-7A (43864 NORAD) Tracking and Keplerian Element Data

This shows tracking and keplerian element data for the satellite.

Feedback or suggestion? Click here.




ElementValue
Catalog43864
NameGSAT-7A
Epoch Orbit36
Epoch Day20.94633303
Epoch Year2019
RAAN291.1955
Inclination0.1315
Eccentricity0.0002438
Argument of Perigee3.3494
Mean Anonmoly228.9221
Mean Motion1.0027358
Decay Rate2.3E-07
L11 43864U 18105A 19020.94633303 .00000023 00000-0 00000-0 0 9998
L22 43864 0.1315 291.1955 0002438 3.3494 228.9221 1.00273580 360

Live tracking and technical data element details for GSAT-7A (NORAD 43864). GSAT-7A can be tracked NOW for your location showing map with azimuth and elevation plus other details from your city location.

Track the satellite on the map from your city or location and see movement details for azimuth, elevation, latitude, longitude, range, height, and movement on the map or in text.







IsCatalogInMostPopularTable: catalog: 43864, numindb: 27
Update: records affected: 1



GetName: 43864 GSAT-7A

Hit Count: updated at: Wed, 23 Jan 2019 03:56:50 GMT